Iron Mountain, MI

1:34 AM CDT on October 17, 2017 (GMT -0500)
Ford

Weather History for KIMT - January, 2014

Change the Weather History Date:

Sunday, January 26, 2014

  Actual Average Record
Temperature  
Mean Temperature 1 °F -  
Max Temperature 6 °F 24 °F 51 °F (1973)
Min Temperature -5 °F 2 °F -23 °F (1963)
Degree Days  
Heating Degree Days 64    
Moisture  
Dew Point -6 °F    
Average Humidity 73    
Maximum Humidity 79    
Minimum Humidity 62    
Precipitation  
Precipitation 0.00 in - - ()
Sea Level Pressure  
Sea Level Pressure 29.41 in    
Wind  
Wind Speed 3 mph (WNW)    
Max Wind Speed 26 mph    
Max Gust Speed 37 mph    
Visibility 4 miles    
Events Snow    
Averages and records for this station are not official NWS values.
T = Trace of Precipitation, MM = Missing Value Source: NWS Daily Summary

Daily Weather History Graph

Daily Weather History Graph

Search for Another Location

Airport or City:

Trip Planner

Search our weather history database for the weather conditions in past years. The results will help you decide how hot, cold, wet, or windy it might be!

Date:

Astronomy

Jan. 26, 2014 Rise Set
Actual Time 7:20 AM CST 4:49 PM CST
Civil Twilight 6:48 AM CST 5:22 PM CST
Nautical Twilight 6:12 AM CST 5:58 PM CST
Astronomical Twilight 5:37 AM CST 6:33 PM CST
Moon 2:59 AM CST (1/26) 12:37 PM CST (1/26)
Length of Visible Light 10h 33m
Length of Day
9h 28m
Waning Crescent, 23% of the Moon is Illuminated
Jan 26
Waning Crescent
Jan 30
New
Feb 6
First Quarter
Feb 14
Full
Feb 22
Last Quarter

Hourly Weather History & Observations

Time (CST) Temp. Windchill Dew Point Humidity Pressure Visibility Wind Dir Wind Speed Gust Speed Precip Events Conditions
12:54 AM -2.9 °F - -13.0 °F 62% 29.63 in 10.0 mi Calm Calm - N/A   Mostly Cloudy
1:54 AM -4.0 °F - -11.9 °F 69% 29.62 in 10.0 mi Calm Calm - N/A   Mostly Cloudy
2:54 AM -4.0 °F - -11.9 °F 69% 29.63 in 10.0 mi Calm Calm - N/A   Overcast
3:54 AM -2.9 °F - -11.9 °F 65% 29.59 in 10.0 mi Calm Calm - N/A   Overcast
4:40 AM -2.2 °F - -9.4 °F 71% 29.49 in 1.8 mi Calm Calm - 0.00 in Snow Light Snow
4:54 AM -2.9 °F - -9.9 °F 72% 29.58 in 2.5 mi Calm Calm - 0.00 in Snow Light Snow
5:14 AM -4.0 °F - -9.4 °F 78% 29.46 in 3.0 mi Calm Calm - 0.00 in Snow Light Snow
5:43 AM -2.2 °F - -7.6 °F 78% 29.45 in 2.5 mi Calm Calm - 0.00 in Snow Light Snow
5:54 AM -4.0 °F -12.4 °F -9.0 °F 79% 29.55 in 2.5 mi SE 3.5 mph - 0.00 in Snow Light Snow
6:07 AM -4.0 °F - -9.4 °F 78% 29.44 in 3.0 mi Calm Calm - 0.00 in Snow Light Snow
6:36 AM -4.0 °F - -9.4 °F 78% 29.43 in 2.5 mi Calm Calm - 0.00 in Snow Light Snow
6:46 AM -2.2 °F - -9.4 °F 71% 29.42 in 3.0 mi Calm Calm - 0.00 in Snow Light Snow
6:54 AM -2.9 °F - -9.0 °F 75% 29.52 in 4.0 mi Calm Calm - 0.00 in Snow Light Snow
7:54 AM -2.9 °F - -8.0 °F 79% 29.48 in 5.0 mi Calm Calm - 0.00 in Snow Light Snow
8:34 AM -2.2 °F -10.4 °F -7.6 °F 78% 29.34 in 2.0 mi SE 3.5 mph - 0.00 in Snow Light Snow
8:47 AM -2.2 °F - -7.6 °F 78% 29.35 in 4.0 mi Calm Calm - 0.00 in Snow Light Snow
8:54 AM -2.9 °F - -8.0 °F 79% 29.46 in 2.5 mi Calm Calm - 0.00 in Snow Light Snow
9:12 AM -2.2 °F - -7.6 °F 78% 29.36 in 1.5 mi Calm Calm - 0.00 in Snow Light Snow
9:37 AM -2.2 °F -10.4 °F -7.6 °F 78% 29.35 in 2.5 mi ESE 3.5 mph - 0.00 in Snow Light Snow
9:54 AM -0.9 °F - -7.1 °F 75% 29.45 in 1.8 mi Calm Calm - 0.00 in Snow Light Snow
10:00 AM -0.4 °F -8.3 °F -5.8 °F 78% 29.34 in 0.8 mi SSE 3.5 mph - 0.00 in Snow Light Snow
10:22 AM -0.4 °F -12.0 °F -5.8 °F 78% 29.32 in 0.5 mi SE 5.8 mph - 0.00 in Snow Snow
10:37 AM -0.4 °F -10.4 °F -5.8 °F 78% 29.31 in 0.8 mi SE 4.6 mph - 0.00 in Snow Light Snow
10:54 AM -0.0 °F -11.6 °F -5.1 °F 79% 29.39 in 0.8 mi SE 5.8 mph - 0.00 in Snow Light Snow
11:02 AM -0.4 °F -10.4 °F -5.8 °F 78% 29.28 in 1.0 mi ESE 4.6 mph - 0.00 in Snow Light Snow
11:22 AM 1.4 °F -6.2 °F -5.8 °F 72% 29.29 in 1.2 mi SE 3.5 mph - 0.00 in Snow Light Snow
11:34 AM 1.4 °F - -5.8 °F 72% 29.27 in 2.5 mi Calm Calm - 0.00 in Snow Light Snow
11:37 AM 1.4 °F - -4.0 °F 78% 29.28 in 3.0 mi Calm Calm - 0.00 in Snow Light Snow
11:54 AM 1.9 °F -5.6 °F -4.0 °F 76% 29.34 in 5.0 mi SE 3.5 mph - 0.00 in   Haze
12:27 PM 3.2 °F -4.2 °F -4.0 °F 72% 29.23 in 1.8 mi Variable 3.5 mph - 0.00 in Snow Light Snow
12:37 PM 3.2 °F -4.2 °F -2.2 °F 78% 29.22 in 1.0 mi WSW 3.5 mph - 0.00 in Snow Light Snow
12:54 PM 3.0 °F -6.4 °F -2.9 °F 76% 29.32 in 1.2 mi West 4.6 mph - 0.00 in Snow Light Snow
1:08 PM 3.2 °F -4.2 °F -2.2 °F 78% 29.21 in 3.0 mi Variable 3.5 mph - 0.00 in Snow Light Snow
1:15 PM 3.2 °F -6.2 °F -2.2 °F 78% 29.21 in 4.0 mi WNW 4.6 mph - 0.00 in Snow Light Snow
1:54 PM 3.9 °F -6.9 °F -2.9 °F 73% 29.30 in 8.0 mi WNW 5.8 mph - 0.00 in   Overcast
2:54 PM 5.0 °F -6.9 °F -2.0 °F 73% 29.32 in 3.0 mi NW 6.9 mph - 0.00 in Snow Light Snow
3:28 PM 6.8 °F -5.9 °F -0.4 °F 72% 29.25 in 2.5 mi WNW 8.1 mph - 0.00 in Snow Light Snow
3:54 PM 6.1 °F -6.8 °F -0.9 °F 73% 29.36 in 2.0 mi WNW 8.1 mph - 0.00 in Snow Light Snow
4:08 PM 6.8 °F -6.9 °F -0.4 °F 72% 29.28 in 3.0 mi WNW 9.2 mph - 0.00 in Snow Light Snow
4:16 PM 6.8 °F -8.6 °F -2.2 °F 67% 29.28 in 2.5 mi WNW 11.5 mph - 0.00 in Snow Light Snow
4:33 PM 6.8 °F -7.8 °F -2.2 °F 67% 29.29 in 3.0 mi NW 10.4 mph - 0.00 in Snow Light Snow
4:47 PM 6.8 °F -7.8 °F -2.2 °F 67% 29.30 in 2.5 mi WNW 10.4 mph - 0.00 in Snow Light Snow
4:54 PM 5.0 °F -11.6 °F -2.0 °F 73% 29.39 in 1.8 mi NW 12.7 mph - 0.00 in Snow Light Snow
5:08 PM 5.0 °F -9.1 °F -2.2 °F 72% 29.31 in 3.0 mi NW 9.2 mph - 0.00 in   Haze
5:54 PM 5.0 °F -11.6 °F -2.9 °F 70% 29.44 in 7.0 mi NW 12.7 mph - 0.00 in   Overcast
6:54 PM 3.9 °F -13.0 °F -4.0 °F 70% 29.48 in 5.0 mi NW 12.7 mph - 0.00 in Snow Light Snow
7:54 PM 1.9 °F -13.8 °F -6.0 °F 69% 29.52 in 10.0 mi NW 10.4 mph - 0.00 in   Scattered Clouds
8:54 PM 1.0 °F -23.2 °F -6.0 °F 72% 29.56 in 3.0 mi NNW 26.5 mph 36.8 mph N/A   Haze
9:54 PM -0.9 °F -23.0 °F -9.0 °F 69% 29.63 in 5.0 mi NW 19.6 mph 27.6 mph N/A   Haze
10:12 PM -0.4 °F -20.5 °F -9.4 °F 66% 29.55 in 5.0 mi NNW 16.1 mph 23.0 mph N/A   Haze
10:22 PM -2.2 °F -25.2 °F -11.2 °F 66% 29.56 in 4.0 mi NW 20.7 mph 32.2 mph N/A   Haze
10:54 PM -4.0 °F -22.1 °F -11.9 °F 69% 29.69 in 10.0 mi NW 11.5 mph - N/A   Clear
11:54 PM -5.1 °F -27.2 °F -13.0 °F 69% 29.73 in 10.0 mi NNW 17.3 mph - N/A   Clear